Regional Weather Roundup
Issued by NWS

Home | Current Version | Previous Version | Graphics & Text | Print | Product List | Glossary On
Versions: 1 2 3 4 5 6 7 8 9 10 11 12 13 14 15 16 17 18 19 20 21 22 23 24 25 26 27 28 29 30 31 32 33 34 35 36 37 38 39 40 41 42 43 44 45 46 47 48 49 50
000
ASUS43 KLSX 260207
RWRMO

WEATHER SUMMARY FOR MISSOURI
NATIONAL WEATHER SERVICE SPRINGFIELD MO
900 PM CDT FRI MAY 25 2018

NOTE: "FAIR" INDICATES FEW OR NO CLOUDS BELOW 12,000 FEET WITH NO
       SIGNIFICANT WEATHER AND/OR OBSTRUCTIONS TO VISIBILITY.
       CURRENT SKY AND/OR WEATHER CONDITIONS ARE NOT AVAILABLE FOR
       CHILLICOTHE AND FARMINGTON.

MOZ001>031-035>038-043-044-053-054-260300-
...NORTHERN AND WESTERN MISSOURI...

CITY           SKY/WX    TMP DP  RH WIND       PRES   REMARKS
KANSAS CTY INT PTCLDY    71  67  87 S8        29.80R
KANSAS C DTWN  PTCLDY    79  64  60 S7        29.78S
LEE`S SUMMIT   CLEAR     76  66  71 SW6       29.81S
ST JOSEPH      CLEAR     80  66  62 S7        29.77R
CHILLICOTHE      N/A     78  67  68 S3        29.81R
KIRKSVILLE     CLEAR     72  66  81 CALM      29.82R

$$
MOZ066>068-077>081-088>096-101>105-260300-
...SOUTHWEST MISSOURI...

CITY           SKY/WX    TMP DP  RH WIND       PRES   REMARKS
SPRINGFIELD    CLOUDY    71  64  78 S10       29.87R
JOPLIN         PTCLDY    75  69  81 CALM      29.84R
BRANSON        TSTM      68  66  94 SE6       29.93R

$$
MOZ032>034-039>042-045>050-055>058-069>072-260300-
...CENTRAL MISSOURI...

CITY           SKY/WX    TMP DP  RH WIND       PRES   REMARKS
COLUMBIA       CLOUDY    74  68  81 S5        29.83R
JEFFERSON CITY CLOUDY    76  69  79 E3        29.82R
ROLLA          CLOUDY    69  65  86 S6        29.87R
SEDALIA        PTCLDY    76  68  76 SW3       29.83R
WHITEMAN AFB   CLEAR     73  69  88 S3        29.78R
WARRENSBURG    CLEAR     73  68  83 SE3       29.81S
OSAGE BEACH    CLOUDY    73  71  93 CALM      29.85R

$$
MOZ051-052-059>065-260300-
...EAST CENTRAL MISSOURI...

CITY           SKY/WX    TMP DP  RH WIND       PRES   REMARKS
ST LOUIS INTL  HVY RAIN  76  70  82 W12       29.83R
SPIRIT OF STL  CLOUDY    74  71  91 SW3       29.81S
ST CHARLES     LGT RAIN  79  68  69 SW10      29.81R

$$
MOZ072>076-082>087-097>100-106>115-260300-
...SOUTH CENTRAL AND SOUTHEAST MISSOURI...

CITY           SKY/WX    TMP DP  RH WIND       PRES   REMARKS
CAPE GIRARDEAU FAIR      73  69  87 S5        29.85S
FARMINGTON     PTCLDY    69  66  90 S5        29.88R
POPLAR BLUFF   FAIR      74  70  87 S7        29.87R
WEST PLAINS    CLOUDY    68  64  87 SW7       29.89F

$$




USA.gov is the U.S. government's official web portal to all federal, state and local government web resources and services.